GSAT-18 1 41793U 16060A 21061.92341204 -.00000085 00000-0 00000-0 0 9996 2 41793 0.0130 209.9415 0001794 296.9050 60.4757 1.00270532 16165 SKY MUSTER 2 (NBN1B) 1 41794U 16060B 21061.92586779 -.00000253 00000-0 00000-0 0 9992 2 41794 0.0125 215.1536 0001672 131.3514 292.5088 1.00270795 16138 ARIANE 5 R/B 1 41795U 16060C 21061.73178803 .00003318 00000-0 43284-3 0 9995 2 41795 5.4872 169.5710 7177207 119.0288 329.1266 2.42965090 37863